Regional Weather Roundup
Issued by NWS

Home | Current Version | Previous Version | Text Only | Print | Product List | Glossary Off
Versions: 1 2 3 4 5 6 7 8 9 10 11 12 13 14 15 16 17 18 19 20 21 22 23 24 25 26 27 28 29 30 31 32 33 34 35 36 37 38 39 40 41 42 43 44 45 46 47 48 49 50

000
ASUS43 KBIS 181602
RWRND

NORTH DAKOTA REGIONAL WEATHER ROUNDUP
NATIONAL WEATHER SERVICE BISMARCK ND
1000 AM CST THU JAN 18 2018

NOTE: "FAIR" INDICATES FEW OR NO CLOUDS BELOW 12,000 FEET WITH NO
SIGNIFICANT WEATHER AND/OR OBSTRUCTIONS TO VISIBILITY.


NDZ001>003-009>011-017-181700-
NORTHWEST NORTH DAKOTA

CITY           SKY/WX    TMP DP  RH WIND       PRES   REMARKS
WILLISTON      CLOUDY    22  17  81 CALM      29.74S
MINOT          CLOUDY    27  19  72 SW3       29.72S
MINOT AFB      CLOUDY    28  20  72 W9        29.70S WCI  19
$$

NDZ018>021-031>035-040>046-181700-
SOUTHWEST NORTH DAKOTA

CITY           SKY/WX    TMP DP  RH WIND       PRES   REMARKS
BISMARCK       CLOUDY    18  14  84 CALM      29.81S
DICKINSON      PTSUNNY   34  22  61 W10       29.77S
GARRISON         N/A     17  13  84 CALM      29.75F
HETTINGER ARPT CLOUDY    32  20  61 W3        29.83S
$$

NDZ004>008-012>016-024-026-027-054-181700-
NORTHEAST NORTH DAKOTA

CITY           SKY/WX    TMP DP  RH WIND       PRES   REMARKS
GRAND FORKS    PTSUNNY   24  18  77 W7        29.78S WCI  16
GRND FRKS AFB  FAIR      24  16  70 NW3       29.77S
DEVILS LAKE    FAIR      19  14  81 SW6       29.76S WCI  11
$$

NDZ022-023-025-028>030-036>039-047>053-181700-
SOUTHEAST NORTH DAKOTA

CITY           SKY/WX    TMP DP  RH WIND       PRES   REMARKS
FARGO          FAIR      21  16  81 SW7       29.80S WCI  12
JAMESTOWN      CLOUDY    28  20  71 W6        29.78S
$$




USA.gov is the U.S. government's official web portal to all federal, state and local government web resources and services.